Regional Weather Roundup
Issued by NWS

Home | Current Version | Previous Version | Graphics & Text | Print | Product List | Glossary On
Versions: 1 2 3 4 5 6 7 8 9 10 11 12 13 14 15 16 17 18 19 20 21 22 23 24 25 26 27 28 29 30 31 32 33 34 35 36 37 38 39 40 41 42 43 44 45 46 47 48 49 50
000
ASUS43 KBIS 160320
RWRND

NORTH DAKOTA REGIONAL WEATHER ROUNDUP
NATIONAL WEATHER SERVICE BISMARCK ND
1000 PM CDT MON SEP 15 2014

NOTE: "FAIR" INDICATES FEW OR NO CLOUDS BELOW 12,000 FEET WITH NO
SIGNIFICANT WEATHER AND/OR OBSTRUCTIONS TO VISIBILITY.


NDZ001>003-009>011-017-160400-
NORTHWEST NORTH DAKOTA

CITY           SKY/WX    TMP DP  RH WIND       PRES   REMARKS
WILLISTON      CLEAR     44  35  70 CALM      30.06S
MINOT          CLEAR     50  37  61 SE5       30.08R
MINOT AFB      CLEAR     47  38  72 SW8       30.07R
$$

NDZ018>021-031>035-040>046-160400-
SOUTHWEST NORTH DAKOTA

CITY           SKY/WX    TMP DP  RH WIND       PRES   REMARKS
BISMARCK       CLEAR     49  38  65 SE3       30.13R
DICKINSON      CLEAR     46  38  73 S9        30.08F
GARRISON         N/A     48  42  80 CALM      30.09S
HETTINGER ARPT CLEAR     50  38  63 SE7       30.12S
$$

NDZ004>008-012>016-024-026-027-054-160400-
NORTHEAST NORTH DAKOTA

CITY           SKY/WX    TMP DP  RH WIND       PRES   REMARKS
GRAND FORKS    CLEAR     49  41  74 SW8       30.08S
GRND FRKS AFB  CLEAR     46  42  86 SW7       30.09S
DEVILS LAKE    CLEAR     48  39  71 W5        30.08S
$$

NDZ022-023-025-028>030-036>039-047>053-160400-
SOUTHEAST NORTH DAKOTA

CITY           SKY/WX    TMP DP  RH WIND       PRES   REMARKS
FARGO          CLEAR     51  39  63 S9        30.13S
JAMESTOWN      CLEAR     50  39  66 SW7       30.13S
$$



USA.gov is the U.S. government's official web portal to all federal, state and local government web resources and services.